Regional Weather Roundup
Issued by NWS

Home | Current Version | Previous Version | Text Only | Print | Product List | Glossary On
Versions: 1 2 3 4 5 6 7 8 9 10 11 12 13 14 15 16 17 18 19 20 21 22 23 24 25 26 27 28 29 30 31 32 33 34 35 36 37 38 39 40 41 42 43 44 45 46 47 48 49 50
000
ASUS43 KMPX 181510
RWRMN
WEATHER ROUNDUP FOR MINNESOTA
NATIONAL WEATHER SERVICE TWIN CITIES/CHANHASSEN MN
1000 AM CDT WED OCT 18 2017


NOTE: "FAIR" INDICATES FEW OR NO CLOUDS BELOW 12,000 FEET WITH NO
SIGNIFICANT WEATHER AND/OR OBSTRUCTIONS TO VISIBILITY. N/A MEANS
CURRENT SKY AND/OR WEATHER CONDITIONS ARE NOT AVAILABLE.

MNZ060>063-068>070-181600-
   Twin Cities Metro

CITY           SKY/WX    TMP DP  RH WIND       PRES   REMARKS
TWIN CITIES    CLOUDY    57  48  72 S14       29.79F
ST PAUL        SUNNY     56  49  77 SE10      29.80F
CRYSTAL        CLOUDY    56  44  64 S12       29.76F
BLAINE         PTSUNNY   59  46  63 S13       29.77F
LAKEVILLE      SUNNY     57  46  67 S12       29.81S
EDEN PRAIRIE   CLOUDY    58  47  66 S16       29.77F
SOUTH ST PAUL  MOSUNNY   56  47  70 S9        29.80F
LAKE ELMO      FAIR      55  48  76 S12       29.82S
$$
MNZ001>005-007-008-013>017-022>024-027-028-181600-
   Northwest Minnesota

CITY           SKY/WX    TMP DP  RH WIND       PRES   REMARKS
BEMIDJI        CLOUDY    58  36  44 W21G32    29.68R
HALLOCK        CLOUDY    54  28  37 W21G28    29.66R
ROSEAU         MOSUNNY   57  39  51 W23G43    29.61R
WARROAD        SUNNY     59  39  47 W20G37    29.58R
THIEF RVR FALL SUNNY     57  35  43 W31G39    29.71R
CROOKSTON      DRIZZLE   57  36  44 NW32G38   29.74R
FOSSTON        CLOUDY    52  36  54 SW13      29.73R
DETROIT LAKES  CLOUDY    57  36  44 NW23G33   29.78R
MOORHEAD       CLOUDY    57  37  47 W10       29.80R
PARK RAPIDS    MOSUNNY   55  44  66 W8        29.72R
MAHNOMEN       FAIR      54  38  54 W17       29.75R
$$
MNZ006-009>011-018-025>026-181600-
   North Central Minnesota

CITY           SKY/WX    TMP DP  RH WIND       PRES   REMARKS
BAUDETTE       CLOUDY    58  35  42 W16G24    29.58R
FLAG ISLAND    SUNNY     59  36  41 W26G32    29.50R
INTL FALLS     MOSUNNY   62  38  40 SW10      29.57R
WASKISH        CLOUDY    55  43  62 W17G25    29.64R
BIG FORK       CLOUDY    61  43  51 SW12G18   29.64S
LONGVILLE      CLOUDY    55  43  62 SW8G16    29.70R
GRAND RAPIDS   CLOUDY    59  42  53 W7G21     29.71R
CRANE LAKE     CLOUDY    57  39  51 S7G17     29.61S
ORR            CLOUDY    55  37  50 SW8       29.60S
COOK           CLOUDY    57  43  58 SW8       29.65R
WALKER         FAIR      57  39  51 SW10      29.69S
$$
MNZ012-019>021-037-181600-
   Northeast Minnesota

CITY           SKY/WX    TMP DP  RH WIND       PRES   REMARKS
DULUTH         CLOUDY    57  44  62 W20G28    29.73R
ELY            CLOUDY    61  39  44 SW15G24   29.65S
HIBBING        CLOUDY    54  42  64 VRB6      29.68R
EVELETH        CLOUDY    58  36  44 SW10G16   29.69R
DULUTH HARBOR  CLOUDY    61  46  59 S17       29.69F
TWO HARBORS    SUNNY     59  50  72 SW8       29.68S
SILVER BAY     SUNNY     59  46  63 SW8G16    29.68S
GRAND MARAIS     N/A     55  50  83 CALM      29.69F
G MARAIS ARPRT CLOUDY    55  41  58 S10G18    29.69F
$$
MNZ029>031-032-039>041-046>048-054>057-064-181600-
   West Central Minnesota

CITY           SKY/WX    TMP DP  RH WIND       PRES   REMARKS
FERGUS FALLS   CLOUDY    50  43  76 W5        29.81R
WHEATON        CLOUDY    55  37  50 W10       29.83R
MORRIS         CLOUDY    57  45  62 NW13      29.78R
ALEXANDRIA     CLOUDY    57  42  57 W14       29.78R
ELBOW LAKE     FAIR      52  42  68 NW9       29.80R
WADENA         CLOUDY    55  43  62 W8        29.75R
GLENWOOD       CLOUDY    55  45  67 W10       29.78R
APPLETON       CLOUDY    57  43  58 W8        29.79R
BENSON         MOSUNNY   54  45  71 NW3       29.80R
ORTONVILLE     CLOUDY    59  39  47 NW12      29.80R
MADISON        MOSUNNY   63  43  48 NW8       29.81R
WILLMAR        FAIR      57  46  67 SW9       29.80R
$$
MNZ033>034-036-042>043-049>051-058-059-181600-
   Central Minnesota

CITY           SKY/WX    TMP DP  RH WIND       PRES   REMARKS
ST CLOUD       CLOUDY    54  47  77 SW8       29.78R
SAUK CENTRE    FAIR      56  43  61 W10G20    29.77R
PAYNESVILLE    CLOUDY    56  47  72 SW9       29.79R
AITKIN         MOSUNNY   57  43  58 SW13      29.72R
PINE RIVER     CLOUDY    54  41  62 W6        29.76R
BRAINERD       CLOUDY    55  43  63 SW8       29.75R
STAPLES        MOSUNNY   55  43  62 W9        29.75R
LONG PRAIRIE   FAIR      54  43  66 S7        29.77R
LITTLE FALLS   CLOUDY    54  37  54 SW5       29.76R
LITCHFIELD     MOSUNNY   55  48  76 SW7       29.80R
BUFFALO        CLOUDY    55  45  69 S10G16    29.77F
MAPLE LAKE     CLOUDY    55  48  75 S6        29.76S
HUTCHINSON     CLOUDY    55  47  76 S9        29.77S
$$
MNZ037-044-045-052-053-181600-
   East Central Minnesota

CITY           SKY/WX    TMP DP  RH WIND       PRES   REMARKS
PRINCETON      CLOUDY    57  48  72 S7        29.74S
MORA           CLOUDY    55  45  67 S6        29.75S
CAMBRIDGE      CLOUDY    61  46  59 S10       29.75S
RUSH CITY      CLOUDY    56  46  70 S10       29.74F
MOOSE LAKE     CLOUDY    55  45  67 SW8G18    29.74R
HINCKLEY       FAIR      55  46  71 S9        29.73F
CLOQUET        CLOUDY    57  43  58 W15       29.74R
MCGREGOR       CLOUDY    57  45  62 SW9G17    29.73S
$$
MNZ071>073-080-081-089-090-097-098-181600-
   Southwest Minnesota

CITY           SKY/WX    TMP DP  RH WIND       PRES   REMARKS
MONTEVIDEO     CLOUDY    57  46  67 NW6       29.80R
GRANITE FALLS  CLOUDY    59  47  64 W6        29.82R
CANBY          CLOUDY    62  41  46 NW18G24   29.83R
MARSHALL       MOSUNNY   58  45  62 W17G25    29.82R
REDWOOD FALLS  MOSUNNY   60  46  59 W9G23     29.80R
OLIVIA         PTSUNNY   57  46  67 W9        29.79R
PIPESTONE      CLOUDY    52  45  76 W8        29.84R
WORTHINGTON    CLOUDY    58  45  62 SW16      29.82R
JACKSON        SUNNY     55  45  67 SW13      29.83S
TRACY          CLOUDY    60  47  62 SW16G23   29.81R
SLAYTON        CLOUDY    56  43  60 W14       29.85R
$$
MNZ065>067-074>077-082>085-091>093-181600-
   South Central Minnesota

CITY           SKY/WX    TMP DP  RH WIND       PRES   REMARKS
MANKATO        MOSUNNY   56  46  69 S14G23    29.82S
NEW ULM          N/A     55  46  71 S9        29.79R
ST JAMES       SUNNY     55  46  71 S13       29.81S
FAIRMONT       SUNNY     55  46  71 S17       29.84S
GLENCOE        CLOUDY    56  47  73 S8G16     29.77S
FARIBAULT      SUNNY     57  48  72 S14       29.83S
OWATONNA       SUNNY     55  48  76 S14G20    29.85R
WASECA         CLOUDY    55  46  71 S14G20    29.86S
$$
MNZ078>079-086>088-094>096-181600-
   Southeast Minnesota

CITY           SKY/WX    TMP DP  RH WIND       PRES   REMARKS
ROCHESTER      SUNNY     56  47  71 S22       29.89F
RED WING       SUNNY     57  45  62 SE8       29.84F
STANTON        MOSUNNY   59  47  66 S10G16    29.81F
DODGE CENTER   SUNNY     55  45  67 S21       29.87S
WINONA         SUNNY     59  46  63 S6        29.91S
AUSTIN         SUNNY     54  46  76 S15       29.89S
PRESTON        SUNNY     55  46  69 S16       29.92S
$$
ABBREVIATIONS USED IN REMARKS
   TC - TEMPERATURES IN CELSIUS
  WCI - WIND CHILL INDEX
   HX - HEAT INDEX
  VSB - VISIBILITY
$$




USA.gov is the U.S. government's official web portal to all federal, state and local government web resources and services.